Weather History for KONP - November, 2012

Change the Weather History Date:

Tuesday, November 20, 2012

  Actual Average Record
Temperature  
Mean Temperature 50 °F -  
Max Temperature 55 °F 52 °F 69 °F (2002)
Min Temperature 44 °F 43 °F 30 °F (2013)
Degree Days  
Heating Degree Days 16    
Moisture  
Dew Point 47 °F    
Average Humidity 91    
Maximum Humidity 100    
Minimum Humidity 76    
Precipitation  
Precipitation 0.63 in - - ()
Sea Level Pressure  
Sea Level Pressure 29.68 in    
Wind  
Wind Speed 15 mph (South)    
Max Wind Speed 29 mph    
Max Gust Speed 46 mph    
Visibility 7 miles    
Events Rain    
Averages and records for this station are not official NWS values.
T = Trace of Precipitation, MM = Missing Value Source: NWS Daily Summary

Daily Weather History Graph

Daily Weather History Graph

Search for Another Location

Airport or City:

Trip Planner

Search our weather history database for the weather conditions in past years. The results will help you decide how hot, cold, wet, or windy it might be!

Date:

Astronomy

Nov. 20, 2012 Rise Set
Actual Time 7:20 AM PST 4:43 PM PST
Civil Twilight 6:48 AM PST 5:15 PM PST
Nautical Twilight 6:12 AM PST 5:51 PM PST
Astronomical Twilight 5:37 AM PST 6:25 PM PST
Moon 12:48 PM PST (11/20) No Moon Set
Length of Visible Light 10h 27m
Length of Day
9h 23m
First Quarter, 52% of the Moon is Illuminated
Nov 20
First Quarter
Nov 28
Full
Dec 6
Last Quarter
Dec 13
New
Dec 19
First Quarter

Hourly Weather History & Observations

Time (PST) Temp. Windchill Dew Point Humidity Pressure Visibility Wind Dir Wind Speed Gust Speed Precip Events Conditions
12:15 AM 51.8 °F - 50.0 °F 94% 29.76 in 7.0 mi South 15.0 mph - N/A   Mostly Cloudy
12:35 AM 51.8 °F - 50.0 °F 94% 29.73 in 7.0 mi South 11.5 mph 17.3 mph N/A   Mostly Cloudy
4:15 AM 50.0 °F - 48.2 °F 94% 29.70 in 5.0 mi SE 6.9 mph - N/A   Heavy Drizzle
4:35 AM 50.0 °F - 48.2 °F 94% 29.68 in 7.0 mi ESE 8.1 mph - 0.01 in   Drizzle
4:55 AM 50.0 °F - 48.2 °F 94% 29.68 in 5.0 mi SE 6.9 mph - 0.02 in Rain Light Rain
5:15 AM 50.0 °F - 48.2 °F 94% 29.67 in 10.0 mi SE 5.8 mph - N/A   Overcast
5:35 AM 50.0 °F - 48.2 °F 94% 29.67 in 10.0 mi ESE 5.8 mph - N/A   Overcast
5:55 AM 50.0 °F - 48.2 °F 94% 29.64 in 10.0 mi ESE 5.8 mph - N/A   Mostly Cloudy
6:15 AM 50.0 °F - 48.2 °F 94% 29.64 in 10.0 mi ESE 3.5 mph - N/A   Mostly Cloudy
6:35 AM 50.0 °F - 48.2 °F 94% 29.63 in 10.0 mi SE 6.9 mph - N/A   Overcast
6:55 AM 50.0 °F - 50.0 °F 100% 29.62 in 10.0 mi SSE 8.1 mph - N/A   Overcast
7:15 AM 51.8 °F - 50.0 °F 94% 29.61 in 10.0 mi SSE 8.1 mph - N/A Rain Light Rain
7:35 AM 51.8 °F - 50.0 °F 94% 29.60 in 7.0 mi South 16.1 mph 20.7 mph 0.02 in Rain Rain
7:55 AM 51.8 °F - 50.0 °F 94% 29.61 in 3.0 mi South 19.6 mph 25.3 mph 0.07 in Rain Heavy Rain
8:15 AM 53.6 °F - 51.8 °F 94% 29.62 in 3.0 mi SSW 24.2 mph 38.0 mph 0.04 in Rain Rain
8:35 AM 53.6 °F - 51.8 °F 94% 29.65 in 2.5 mi SSW 27.6 mph 36.8 mph 0.10 in Rain Rain
8:55 AM 53.6 °F - 51.8 °F 94% 29.66 in 2.0 mi SSW 26.5 mph 36.8 mph 0.17 in Rain Heavy Rain
9:15 AM 53.6 °F - 51.8 °F 94% 29.60 in 2.5 mi SSW 25.3 mph 39.1 mph 0.03 in Rain Rain
9:35 AM 53.6 °F - 51.8 °F 94% 29.64 in 4.0 mi SSW 24.2 mph 33.4 mph 0.04 in Rain Light Rain
9:55 AM 53.6 °F - 51.8 °F 94% 29.66 in 4.0 mi SSW 24.2 mph 29.9 mph 0.04 in   Overcast
10:15 AM 53.6 °F - 51.8 °F 94% 29.67 in 5.0 mi South 28.8 mph 42.6 mph N/A   Overcast
10:35 AM 53.6 °F - 51.8 °F 94% 29.68 in 5.0 mi SSW 26.5 mph 34.5 mph N/A   Overcast
10:55 AM 53.6 °F - 51.8 °F 94% 29.69 in 5.0 mi SSW 23.0 mph 34.5 mph N/A   Overcast
11:15 AM 53.6 °F - 51.8 °F 94% 29.70 in 5.0 mi SSW 27.6 mph 40.3 mph N/A   Overcast
11:35 AM 53.6 °F - 50.0 °F 88% 29.70 in 5.0 mi SSW 26.5 mph 33.4 mph N/A   Overcast
11:55 AM 55.4 °F - 51.8 °F 88% 29.71 in 5.0 mi SSW 27.6 mph 33.4 mph N/A   Overcast
12:15 PM 51.8 °F - 44.6 °F 76% 29.71 in 7.0 mi SSW 24.2 mph 29.9 mph N/A   Overcast
12:35 PM 53.6 °F - 46.4 °F 77% 29.72 in 7.0 mi SW 17.3 mph 34.5 mph N/A   Overcast
12:55 PM 50.0 °F - 42.8 °F 76% 29.72 in 7.0 mi WSW 23.0 mph 29.9 mph N/A   Overcast
1:15 PM - - - N/A% - - North - - N/A   Unknown
1:35 PM 48.2 °F - 44.6 °F 87% 29.71 in 1.8 mi SW 24.2 mph 35.7 mph 0.07 in Rain Heavy Rain
1:55 PM 48.2 °F - 44.6 °F 87% 29.71 in 3.0 mi South 17.3 mph 31.1 mph 0.12 in Rain Light Rain
2:15 PM 48.2 °F - 44.6 °F 87% 29.71 in 10.0 mi SSW 18.4 mph 27.6 mph 0.01 in Rain Light Rain
2:35 PM 50.0 °F - 46.4 °F 87% 29.81 in 7.0 mi SSW 20.7 mph 25.3 mph 0.01 in   Overcast
2:55 PM 50.0 °F - 46.4 °F 87% 29.75 in 7.0 mi South 16.1 mph 24.2 mph 0.01 in   Overcast
3:15 PM 50.0 °F - 46.4 °F 87% 29.75 in 7.0 mi SSW 17.3 mph 24.2 mph N/A   Overcast
3:35 PM 51.8 °F - 46.4 °F 82% 29.75 in 7.0 mi SSW 20.7 mph 24.2 mph N/A Rain Light Rain
3:55 PM 48.2 °F - 44.6 °F 87% 29.75 in 5.0 mi South 17.3 mph 25.3 mph 0.01 in Rain Light Rain
4:15 PM 46.4 °F 41.1 °F 42.8 °F 87% 29.75 in 10.0 mi SSE 11.5 mph 17.3 mph N/A   Overcast
4:35 PM 46.4 °F 40.7 °F 44.6 °F 93% 29.75 in 10.0 mi South 12.7 mph - N/A   Overcast
4:55 PM 46.4 °F 41.5 °F 44.6 °F 93% 29.73 in 10.0 mi SSE 10.4 mph 16.1 mph N/A   Overcast
5:15 PM 46.4 °F 41.5 °F 44.6 °F 93% 29.74 in 10.0 mi South 10.4 mph - N/A   Overcast
5:35 PM 48.2 °F - 44.6 °F 87% 29.74 in 10.0 mi SSE 9.2 mph 18.4 mph N/A   Overcast
5:55 PM 46.4 °F 41.5 °F 44.6 °F 93% 29.73 in 10.0 mi South 10.4 mph - N/A   Overcast
6:15 PM 46.4 °F 41.5 °F 44.6 °F 93% 29.72 in 10.0 mi SSE 10.4 mph - N/A   Overcast
6:35 PM 48.2 °F - 44.6 °F 87% 29.72 in 10.0 mi SSE 10.4 mph 16.1 mph N/A Rain Light Rain
6:55 PM 48.2 °F - 44.6 °F 87% 29.70 in 10.0 mi SSE 9.2 mph - N/A   Overcast
7:15 PM 46.4 °F 41.9 °F 44.6 °F 93% 29.70 in 10.0 mi SSE 9.2 mph - N/A   Scattered Clouds
7:35 PM 46.4 °F 42.4 °F 44.6 °F 93% 29.69 in 10.0 mi SSE 8.1 mph - N/A   Clear
7:55 PM 46.4 °F 42.4 °F 44.6 °F 93% 29.68 in 10.0 mi SSE 8.1 mph - N/A   Clear
8:15 PM 46.4 °F 41.9 °F 44.6 °F 93% 29.67 in 10.0 mi SSE 9.2 mph - N/A   Clear
8:35 PM 46.4 °F 42.4 °F 44.6 °F 93% 29.67 in 10.0 mi SSE 8.1 mph - N/A   Clear
8:55 PM 48.2 °F - 44.6 °F 87% 29.66 in 10.0 mi SSE 11.5 mph - N/A   Scattered Clouds
9:15 PM 50.0 °F - 44.6 °F 82% 29.66 in 10.0 mi South 13.8 mph 19.6 mph N/A   Mostly Cloudy
9:35 PM 50.0 °F - 44.6 °F 82% 29.65 in 10.0 mi SSE 9.2 mph 17.3 mph N/A   Overcast
9:55 PM 50.0 °F - 46.4 °F 87% 29.65 in 10.0 mi South 12.7 mph - N/A Rain Light Rain
10:15 PM 50.0 °F - 46.4 °F 87% 29.64 in 7.0 mi South 23.0 mph 32.2 mph 0.02 in Rain Rain
10:35 PM 44.6 °F 35.9 °F 42.8 °F 93% 29.65 in 2.5 mi SW 23.0 mph 46.0 mph 0.09 in Rain Rain
10:55 PM 46.4 °F 38.5 °F 44.6 °F 93% 29.65 in 4.0 mi SSW 21.9 mph 29.9 mph 0.17 in Rain Rain
11:15 PM 46.4 °F 40.7 °F 44.6 °F 93% 29.62 in 7.0 mi SSE 12.7 mph 18.4 mph 0.02 in Rain Rain
11:35 PM 46.4 °F 39.8 °F 44.6 °F 93% 29.66 in 10.0 mi South 16.1 mph - 0.02 in   Overcast
11:55 PM 46.4 °F 40.1 °F 44.6 °F 93% 29.64 in 7.0 mi South 15.0 mph 25.3 mph 0.02 in   Overcast